TimeCDT,TemperatureF,Dew PointF,Humidity,Sea Level PressureIn,VisibilityMPH,Wind Direction,Wind SpeedMPH,Gust SpeedMPH,PrecipitationIn,Events,Conditions,WindDirDegrees,DateUTC
12:15 AM,31.6,24.4,75,30.11,10.0,Calm,Calm,-,N/A,,Clear,0,2013-04-20 05:15:00
12:35 AM,30.7,24.8,79,30.12,10.0,Calm,Calm,-,N/A,,Clear,0,2013-04-20 05:35:00
12:55 AM,30.6,24.6,79,30.12,10.0,Calm,Calm,-,N/A,,Clear,0,2013-04-20 05:55:00
1:15 AM,30.2,24.4,79,30.12,10.0,NE,4.6,-,N/A,,Clear,50,2013-04-20 06:15:00
1:35 AM,30.2,23.9,77,30.12,10.0,NE,3.5,-,N/A,,Clear,40,2013-04-20 06:35:00
1:55 AM,30.2,23.7,77,30.12,10.0,ENE,3.5,-,N/A,,Clear,60,2013-04-20 06:55:00
2:15 AM,29.8,23.4,77,30.13,10.0,Calm,Calm,-,N/A,,Clear,0,2013-04-20 07:15:00
2:35 AM,27.9,22.6,81,30.14,10.0,Calm,Calm,-,N/A,,Clear,0,2013-04-20 07:35:00
2:55 AM,28.0,22.8,81,30.14,10.0,Calm,Calm,-,N/A,,Clear,0,2013-04-20 07:55:00
3:15 AM,28.9,23.2,79,30.14,10.0,Calm,Calm,-,N/A,,Clear,0,2013-04-20 08:15:00
3:35 AM,25.3,20.3,81,30.14,10.0,Calm,Calm,-,N/A,,Clear,0,2013-04-20 08:35:00
3:55 AM,24.8,21.0,86,30.14,10.0,Calm,Calm,-,N/A,,Clear,0,2013-04-20 08:55:00
4:15 AM,27.7,23.2,83,30.14,10.0,Calm,Calm,-,N/A,,Clear,0,2013-04-20 09:15:00
4:35 AM,26.4,22.3,84,30.14,10.0,Calm,Calm,-,N/A,,Clear,0,2013-04-20 09:35:00
4:55 AM,25.5,22.5,88,30.14,10.0,NE,4.6,-,N/A,,Clear,40,2013-04-20 09:55:00
5:15 AM,26.4,23.0,87,30.15,10.0,NE,4.6,-,N/A,,Scattered Clouds,50,2013-04-20 10:15:00
5:35 AM,26.4,22.6,86,30.15,10.0,Calm,Calm,-,N/A,,Clear,0,2013-04-20 10:35:00
5:55 AM,26.2,22.6,86,30.16,10.0,Calm,Calm,-,N/A,,Clear,0,2013-04-20 10:55:00
6:15 AM,25.9,22.1,86,30.16,10.0,NE,3.5,-,N/A,,Clear,40,2013-04-20 11:15:00
6:35 AM,26.4,23.2,88,30.16,10.0,NE,4.6,-,N/A,,Clear,50,2013-04-20 11:35:00
6:55 AM,27.1,23.5,86,30.16,10.0,ENE,6.9,-,N/A,,Scattered Clouds,60,2013-04-20 11:55:00
7:15 AM,30.0,24.3,79,30.17,10.0,NE,3.5,-,N/A,,Mostly Cloudy,50,2013-04-20 12:15:00
7:35 AM,31.3,25.3,79,30.17,10.0,East,4.6,-,N/A,,Overcast,80,2013-04-20 12:35:00
7:55 AM,32.7,26.2,77,30.18,10.0,East,5.8,-,N/A,,Overcast,90,2013-04-20 12:55:00
8:15 AM,34.2,26.1,72,30.19,10.0,East,6.9,-,N/A,,Overcast,90,2013-04-20 13:15:00
8:35 AM,34.7,26.4,72,30.19,10.0,East,6.9,-,N/A,,Overcast,100,2013-04-20 13:35:00
8:55 AM,35.6,25.7,67,30.19,10.0,East,10.4,-,N/A,,Overcast,90,2013-04-20 13:55:00
9:15 AM,36.0,25.5,66,30.20,10.0,East,10.4,-,N/A,,Overcast,100,2013-04-20 14:15:00
9:35 AM,37.4,21.4,52,30.21,10.0,East,12.7,-,N/A,,Overcast,100,2013-04-20 14:35:00
9:55 AM,39.0,23.0,53,30.20,10.0,ESE,12.7,17.3,N/A,,Mostly Cloudy,110,2013-04-20 14:55:00
10:15 AM,39.0,21.7,50,30.21,10.0,ESE,12.7,-,N/A,,Mostly Cloudy,120,2013-04-20 15:15:00
10:35 AM,39.9,22.3,49,30.21,10.0,ESE,11.5,17.3,N/A,,Overcast,110,2013-04-20 15:35:00
10:55 AM,41.0,22.1,47,30.22,10.0,ESE,10.4,16.1,N/A,,Overcast,120,2013-04-20 15:55:00
11:15 AM,41.2,21.7,46,30.22,10.0,ESE,12.7,-,N/A,,Overcast,120,2013-04-20 16:15:00
11:35 AM,42.3,22.6,46,30.22,10.0,ESE,12.7,17.3,N/A,,Mostly Cloudy,120,2013-04-20 16:35:00
11:55 AM,43.0,22.3,44,30.22,10.0,East,12.7,19.6,N/A,,Overcast,100,2013-04-20 16:55:00
12:15 PM,44.6,22.8,42,30.20,10.0,East,13.8,19.6,N/A,,Mostly Cloudy,100,2013-04-20 17:15:00
12:35 PM,44.6,22.8,42,30.19,10.0,ESE,16.1,19.6,N/A,,Clear,110,2013-04-20 17:35:00
12:55 PM,45.7,23.0,41,30.18,10.0,East,13.8,-,N/A,,Scattered Clouds,100,2013-04-20 17:55:00
1:15 PM,46.8,22.5,38,30.17,10.0,ESE,13.8,19.6,N/A,,Scattered Clouds,110,2013-04-20 18:15:00
1:35 PM,46.6,21.7,37,30.16,10.0,ESE,12.7,20.7,N/A,,Scattered Clouds,120,2013-04-20 18:35:00
1:55 PM,47.3,21.6,36,30.16,10.0,ESE,13.8,21.9,N/A,,Scattered Clouds,120,2013-04-20 18:55:00
2:15 PM,47.3,21.2,36,30.15,10.0,ESE,16.1,23.0,N/A,,Scattered Clouds,110,2013-04-20 19:15:00
2:35 PM,48.2,22.6,37,30.14,10.0,ESE,16.1,24.2,N/A,,Scattered Clouds,120,2013-04-20 19:35:00
2:55 PM,48.4,22.6,36,30.13,10.0,ESE,17.3,23.0,N/A,,Scattered Clouds,120,2013-04-20 19:55:00
3:15 PM,49.3,22.8,35,30.13,10.0,ESE,16.1,21.9,N/A,,Scattered Clouds,110,2013-04-20 20:15:00
3:35 PM,49.1,22.5,35,30.12,10.0,ESE,16.1,24.2,N/A,,Scattered Clouds,120,2013-04-20 20:35:00
3:55 PM,48.7,22.3,35,30.12,10.0,ESE,15.0,21.9,N/A,,Clear,120,2013-04-20 20:55:00
4:15 PM,48.9,22.8,36,30.12,10.0,ESE,12.7,19.6,N/A,,Mostly Cloudy,120,2013-04-20 21:15:00
4:35 PM,49.5,24.1,37,30.12,10.0,ESE,13.8,-,N/A,,Mostly Cloudy,110,2013-04-20 21:35:00
4:55 PM,50.4,23.0,34,30.11,10.0,ESE,12.7,19.6,N/A,,Mostly Cloudy,120,2013-04-20 21:55:00
5:15 PM,50.7,23.4,34,30.10,10.0,ESE,16.1,23.0,N/A,,Mostly Cloudy,120,2013-04-20 22:15:00
5:35 PM,50.9,23.2,34,30.10,10.0,ESE,13.8,-,N/A,,Mostly Cloudy,120,2013-04-20 22:35:00
5:55 PM,50.0,24.1,36,30.09,10.0,ESE,15.0,-,N/A,,Scattered Clouds,110,2013-04-20 22:55:00
6:15 PM,50.0,24.4,37,30.09,10.0,ESE,11.5,-,N/A,,Scattered Clouds,110,2013-04-20 23:15:00
6:35 PM,50.0,24.8,37,30.10,10.0,ESE,11.5,18.4,N/A,,Overcast,110,2013-04-20 23:35:00
6:55 PM,49.8,24.6,37,30.08,10.0,East,15.0,23.0,N/A,,Overcast,100,2013-04-20 23:55:00
7:15 PM,49.6,25.7,39,30.09,10.0,ESE,10.4,-,N/A,,Mostly Cloudy,110,2013-04-21 00:15:00
7:35 PM,49.5,26.4,41,30.08,10.0,ESE,13.8,18.4,N/A,,Mostly Cloudy,110,2013-04-21 00:35:00
7:55 PM,49.1,26.8,42,30.09,10.0,ESE,11.5,-,N/A,,Overcast,110,2013-04-21 00:55:00
8:15 PM,48.4,27.5,44,30.10,10.0,ESE,8.1,-,N/A,,Overcast,110,2013-04-21 01:15:00
8:35 PM,48.2,28.0,46,30.10,10.0,ESE,10.4,-,N/A,,Overcast,110,2013-04-21 01:35:00
8:55 PM,47.8,28.2,47,30.10,10.0,ESE,10.4,-,N/A,,Overcast,110,2013-04-21 01:55:00
9:15 PM,47.7,28.4,47,30.10,10.0,ESE,8.1,-,N/A,,Overcast,110,2013-04-21 02:15:00
9:35 PM,47.3,29.3,50,30.11,10.0,ESE,8.1,-,N/A,,Overcast,110,2013-04-21 02:35:00
9:55 PM,47.7,29.1,49,30.12,10.0,East,8.1,-,N/A,,Overcast,100,2013-04-21 02:55:00
10:15 PM,47.7,29.1,49,30.12,10.0,East,5.8,-,N/A,,Overcast,100,2013-04-21 03:15:00
10:35 PM,48.0,28.0,46,30.12,10.0,ESE,9.2,-,N/A,,Overcast,120,2013-04-21 03:35:00
10:55 PM,48.2,27.5,45,30.12,10.0,ESE,8.1,-,N/A,,Overcast,120,2013-04-21 03:55:00
11:15 PM,48.0,27.7,45,30.12,10.0,ESE,10.4,-,N/A,,Overcast,120,2013-04-21 04:15:00
11:35 PM,47.5,28.2,47,30.12,10.0,ESE,11.5,-,N/A,,Overcast,120,2013-04-21 04:35:00
11:55 PM,47.5,28.2,47,30.12,10.0,ESE,12.7,-,N/A,,Overcast,120,2013-04-21 04:55:00